• In Latvia
  • List of Countries
  • For 7 days
  • Water Temperature
  • Satellite Maps
  • Weather Map
  • Weather Widgets
  • user-avatar
    Login

    Hourly Weather Río Gallegos

    Today, 17 January, Tuesday

    Time Temperature Precipitation Wind Pressure Humidity
    00:00 +8°C° 0.4 mm 6 mps 744 mmHg 66%
    01:00 +7°C° 0.4 mm 8 mps 743 mmHg 67%
    02:00 +7°C° 0.2 mm 8 mps 742 mmHg 66%
    03:00 +7°C° 0.2 mm 9 mps 741 mmHg 65%
    04:00 +7°C° 0.2 mm 10 mps 740 mmHg 64%
    05:00 +7°C° 0 mm 10 mps 740 mmHg 62%
    06:00 +8°C° 0 mm 10 mps 740 mmHg 60%
    07:00 +9°C° 0 mm 10 mps 740 mmHg 58%
    08:00 +9°C° 0.3 mm 12 mps 742 mmHg 60%
    09:00 +8°C° 0.3 mm 13 mps 743 mmHg 62%
    10:00 +8°C° 0.3 mm 15 mps 744 mmHg 64%
    11:00 +9°C° 0.1 mm 15 mps 745 mmHg 57%
    12:00 +9°C° 0.1 mm 14 mps 746 mmHg 50%
    13:00 +10°C° 0.1 mm 14 mps 747 mmHg 43%
    14:00 +10°C° 0.1 mm 14 mps 748 mmHg 45%
    15:00 +9°C° 0.1 mm 14 mps 748 mmHg 47%
    16:00 +9°C° 0.1 mm 13 mps 748 mmHg 49%
    17:00 +9°C° 0 mm 12 mps 749 mmHg 50%
    18:00 +8°C° 0 mm 11 mps 750 mmHg 51%
    19:00 +8°C° 0 mm 10 mps 750 mmHg 52%
    20:00 +7°C° 0 mm 9 mps 751 mmHg 57%
    21:00 +6°C° 0 mm 8 mps 751 mmHg 61%
    22:00 +5°C° 0 mm 7 mps 752 mmHg 65%
    23:00 +5°C° 0 mm 6 mps 752 mmHg 69%

    Tomorrow, 18 January, Wednesday

    Time Temperature Precipitation Wind Pressure Humidity
    00:00 +5°C° 0 mm 6 mps 752 mmHg 72%
    01:00 +4°C° 0 mm 6 mps 752 mmHg 76%
    02:00 +6°C° 0.2 mm 5 mps 752 mmHg 76%
    03:00 +6°C° 0.2 mm 5 mps 752 mmHg 76%
    04:00 +6°C° 0.2 mm 4 mps 752 mmHg 77%
    05:00 +6°C° 0.4 mm 4 mps 752 mmHg 76%
    06:00 +7°C° 0.4 mm 4 mps 751 mmHg 76%
    07:00 +7°C° 0.4 mm 4 mps 751 mmHg 75%
    08:00 +7°C° 0.6 mm 6 mps 750 mmHg 72%
    09:00 +7°C° 0.6 mm 8 mps 750 mmHg 68%
    10:00 +8°C° 0.6 mm 10 mps 749 mmHg 65%
    11:00 +11°C° 0.1 mm 9 mps 748 mmHg 60%
    12:00 +12°C° 0.1 mm 8 mps 747 mmHg 56%
    13:00 +15°C° 0.1 mm 7 mps 747 mmHg 52%
    14:00 +15°C° 0.1 mm 7 mps 747 mmHg 54%
    15:00 +15°C° 0.1 mm 6 mps 746 mmHg 56%
    16:00 +16°C° 0.1 mm 6 mps 746 mmHg 58%
    17:00 +15°C° 0.2 mm 5 mps 746 mmHg 61%
    18:00 +14°C° 0.2 mm 4 mps 747 mmHg 64%
    19:00 +14°C° 0.2 mm 3 mps 747 mmHg 68%
    20:00 +13°C° 0 mm 3 mps 748 mmHg 70%
    21:00 +12°C° 0 mm 4 mps 748 mmHg 73%
    22:00 +10°C° 0 mm 4 mps 749 mmHg 76%
    23:00 +10°C° 0 mm 3 mps 749 mmHg 76%

    Day after tomorrow, 19 January, Thursday

    Time Temperature Precipitation Wind Pressure Humidity
    00:00 +10°C° 0 mm 3 mps 749 mmHg 77%
    01:00 +9°C° 0 mm 3 mps 749 mmHg 77%
    02:00 +10°C° 0.1 mm 3 mps 749 mmHg 76%
    03:00 +10°C° 0.1 mm 3 mps 749 mmHg 76%
    04:00 +10°C° 0.1 mm 3 mps 749 mmHg 75%
    05:00 +11°C° 0.2 mm 3 mps 749 mmHg 74%
    06:00 +12°C° 0.2 mm 3 mps 749 mmHg 72%
    07:00 +13°C° 0.2 mm 3 mps 749 mmHg 70%
    08:00 +13°C° 0.1 mm 5 mps 748 mmHg 67%
    09:00 +14°C° 0.1 mm 6 mps 748 mmHg 64%
    10:00 +15°C° 0.1 mm 7 mps 748 mmHg 61%
    11:00 +16°C° 0.1 mm 7 mps 747 mmHg 59%
    12:00 +17°C° 0.1 mm 6 mps 747 mmHg 56%
    13:00 +19°C° 0.1 mm 6 mps 746 mmHg 54%
    14:00 +19°C° 0 mm 6 mps 746 mmHg 53%
    15:00 +20°C° 0 mm 6 mps 746 mmHg 53%
    16:00 +20°C° 0 mm 5 mps 746 mmHg 52%
    17:00 +19°C° 0.1 mm 4 mps 746 mmHg 58%
    18:00 +18°C° 0.1 mm 3 mps 746 mmHg 63%
    19:00 +17°C° 0.1 mm 2 mps 746 mmHg 69%
    20:00 +16°C° 0.5 mm 2 mps 747 mmHg 72%
    21:00 +14°C° 0.5 mm 3 mps 747 mmHg 76%
    22:00 +13°C° 0.5 mm 3 mps 747 mmHg 80%
    23:00 +13°C° 0.3 mm 3 mps 747 mmHg 78%

    20 January, Friday

    Time Temperature Precipitation Wind Pressure Humidity
    00:00 +13°C° 0.3 mm 4 mps 747 mmHg 77%
    01:00 +13°C° 0.3 mm 4 mps 746 mmHg 75%
    02:00 +13°C° 0 mm 4 mps 746 mmHg 73%
    03:00 +12°C° 0 mm 5 mps 746 mmHg 70%
    04:00 +12°C° 0 mm 5 mps 746 mmHg 67%
    05:00 +13°C° 0 mm 6 mps 747 mmHg 63%
    06:00 +14°C° 0 mm 6 mps 747 mmHg 59%
    07:00 +15°C° 0 mm 6 mps 747 mmHg 55%
    08:00 +15°C° 0 mm 6 mps 747 mmHg 54%
    09:00 +15°C° 0 mm 6 mps 748 mmHg 53%
    10:00 +16°C° 0 mm 6 mps 748 mmHg 51%
    11:00 +16°C° 0.1 mm 6 mps 748 mmHg 49%
    12:00 +16°C° 0.1 mm 6 mps 748 mmHg 47%
    13:00 +16°C° 0.1 mm 6 mps 748 mmHg 45%
    14:00 +16°C° 0.1 mm 5 mps 748 mmHg 46%
    15:00 +16°C° 0.1 mm 5 mps 748 mmHg 48%
    16:00 +17°C° 0.1 mm 4 mps 749 mmHg 49%
    17:00 +15°C° 0.1 mm 4 mps 749 mmHg 53%
    18:00 +14°C° 0.1 mm 4 mps 750 mmHg 56%
    19:00 +13°C° 0.1 mm 3 mps 751 mmHg 60%
    20:00 +13°C° 0.1 mm 3 mps 751 mmHg 62%
    21:00 +12°C° 0.1 mm 3 mps 751 mmHg 65%
    22:00 +11°C° 0.1 mm 3 mps 752 mmHg 67%
    23:00 +11°C° 0 mm 3 mps 752 mmHg 68%

    21 January, Saturday

    Time Temperature Precipitation Wind Pressure Humidity
    00:00 +10°C° 0 mm 3 mps 752 mmHg 69%
    01:00 +10°C° 0 mm 3 mps 752 mmHg 70%
    02:00 +10°C° 0 mm 3 mps 752 mmHg 68%
    03:00 +9°C° 0 mm 3 mps 752 mmHg 66%
    04:00 +9°C° 0 mm 3 mps 752 mmHg 64%
    05:00 +10°C° 0.1 mm 4 mps 753 mmHg 60%
    06:00 +10°C° 0.1 mm 5 mps 753 mmHg 57%
    07:00 +11°C° 0.1 mm 7 mps 753 mmHg 53%
    08:00 +12°C° 0 mm 7 mps 753 mmHg 51%
    09:00 +14°C° 0 mm 7 mps 753 mmHg 49%
    10:00 +15°C° 0 mm 7 mps 753 mmHg 47%
    11:00 +16°C° 0 mm 8 mps 753 mmHg 45%
    12:00 +16°C° 0 mm 8 mps 752 mmHg 43%
    13:00 +17°C° 0 mm 9 mps 752 mmHg 40%
    14:00 +16°C° 0.4 mm 8 mps 752 mmHg 45%
    15:00 +16°C° 0.4 mm 7 mps 752 mmHg 49%
    16:00 +15°C° 0.4 mm 7 mps 751 mmHg 53%
    17:00 +13°C° 0.1 mm 8 mps 752 mmHg 54%
    18:00 +13°C° 0.1 mm 10 mps 752 mmHg 56%
    19:00 +12°C° 0.1 mm 11 mps 752 mmHg 57%
    20:00 +11°C° 0 mm 10 mps 753 mmHg 61%
    21:00 +8°C° 0 mm 10 mps 754 mmHg 65%
    22:00 +7°C° 0 mm 9 mps 755 mmHg 69%
    23:00 +7°C° 0 mm 8 mps 755 mmHg 70%

    22 January, Sunday

    Time Temperature Precipitation Wind Pressure Humidity
    00:00 +6°C° 0 mm 8 mps 755 mmHg 71%
    01:00 +6°C° 0 mm 7 mps 755 mmHg 73%
    02:00 +6°C° 0 mm 7 mps 755 mmHg 70%
    03:00 +7°C° 0 mm 6 mps 755 mmHg 68%
    04:00 +5°C° 0 mm 6 mps 755 mmHg 66%
    05:00 +8°C° 0 mm 6 mps 755 mmHg 61%
    06:00 +9°C° 0 mm 7 mps 755 mmHg 57%
    07:00 +10°C° 0 mm 8 mps 755 mmHg 52%
    08:00 +11°C° 0.2 mm 8 mps 755 mmHg 52%
    09:00 +12°C° 0.2 mm 8 mps 754 mmHg 53%
    10:00 +12°C° 0.2 mm 7 mps 754 mmHg 54%
    11:00 +14°C° 0.4 mm 7 mps 753 mmHg 54%
    12:00 +14°C° 0.4 mm 6 mps 752 mmHg 55%
    13:00 +15°C° 0.4 mm 5 mps 752 mmHg 56%
    14:00 +15°C° 0.5 mm 5 mps 751 mmHg 61%
    15:00 +14°C° 0.5 mm 5 mps 751 mmHg 67%
    16:00 +14°C° 0.5 mm 5 mps 751 mmHg 72%
    17:00 +14°C° 0 mm 5 mps 750 mmHg 71%
    18:00 +14°C° 0 mm 4 mps 750 mmHg 70%
    19:00 +14°C° 0 mm 3 mps 750 mmHg 68%
    20:00 +13°C° 0.6 mm 5 mps 750 mmHg 73%
    21:00 +11°C° 0.6 mm 6 mps 750 mmHg 77%
    22:00 +11°C° 0.6 mm 7 mps 749 mmHg 81%
    23:00 +10°C° 0.2 mm 7 mps 749 mmHg 82%
    Show more